STARLINK-1449, 45666

Orbit data source: Space-Track

STARLINK-1449, 45666 is a payload satellite owned by SpaceX/Seattle (US) in LEO that was launched on Thu, 04 Jun 2020 UTC via an FALCON 9 launch vehicle from the Air Force Eastern Test Range (AFETR). Payload-class satellites include a variety of spacecraft equipped with specific instruments for various scientific and technological missions. These include communications satellites like Starlink; space stations such as the ISS; scientific satellites like the Hubble; Earth observation satellites from companies like Planet Labs, Umbra, and HawkEye 360; GPS; miniature CubeSats for education and research; and military/defense satellites.

Not visible in the next 10 days
Identifier
45666, 2020-035K
Orbit
LEO
Last TLE update
2 days ago
Origin
Manufacturer
SpaceX/Seattle
Mission
Partially operational Commercial Communications
Bus & Motor
STARLINK, Unknown motor
Mass
260 kg wet, ~248 kg dry
Launch date (UTC)
2020-06-04 (5 years ago)
Launch vehicle
FALCON 9
Launch site
Air Force Eastern Test Range (AFETR)
Object type
Payload
Rocket body
Debris
Shape & HBR
Box + 1 Pan, 8.86 m
Radar Cross Section
13.562 m², Large (>1 m²)

Expand to show TLE details & history

TLE from 2 days ago
0 STARLINK-1449
1 45666U 20035K   25117.97275594  .00745725  28360-3  11165-2 0  9999
2 45666  53.0232 307.6956 0004637 290.6635 229.9192 16.04173753272081
Epoch: 2025-04-27T23:20Z
Definitive object data (Epoch: 2025-04-27T23:20:46.113Z)
Latitude
15.45002°
Longitude
-90.63152°
Altitude
265.065 km
Speed
7.75 km/s
True Right ascension
07h 43m 00s
True Declination
15° 21' 20"
Sunlit
Object was in daylight at TLE epoch
Visualization TLE readout
Latitude
-37.96476°
Longitude
-53.7208°
Altitude
264.501 km
Speed
7.749 km/s
Apparent Right ascension
14h 45m 22s
Apparent Declination
-74° 21' 03"
Sunlit
Object is in full shadow
Visualization observer readout
Local Sidereal Time
08:27:55
Azimuth
159.656° S
Elevation
-39.318°
Doppler factor
1
Orbital elements
Apogee altitude
266.241 km
Perigee altitude
260.082 km
Semi-major axis
6,641.299 km
Eccentricity
0.0004637
Inclination
53.0232°
RAAN
307.6956°
Arg. of periapsis
290.6635°
True anomaly
229.87856°
Mean anomaly
229.9192°
Eccentric anomaly
229.89888°
Mean motion
4.01018 °/min
BSTAR
0.0011165
Orbital period
89.77 mins
Loading maneuver chart data...
Loading SW <> Apogee altitude chart data...

STARLINK-1449 Visibility forecast

Observer location: undefined°, undefined°

STARLINK-1449 is not visible in the next 10 days
Span
Click to sort rows by Start time (UTC) header in descending order
Start Az.
Max El. time (UTC)
Max El. Az.
Max El.
End time (UTC)
End Az.
|